This demonstration page uses our WeatherBlox Daily Observations layout. Learn more.

Left ArrowRight Arrow

44.8408, -93.29828

Hourly Observations for November 12, 2019

Temp ( °F °C ) Dew Point ( °F °C ) Humidity (%) Winds ( mph kmh ) Pressure ( in mb ) Visibility ( mi km ) Precip ( " mm )
12:53 am 00:53 Clear 8 -13.3 -3 -19.4 60 60 NW 8 13 30.66 1038 10 16 0.00 0.00
1:53 am 01:53 Clear 7 -13.9 -3 -19.4 63 63 NW 7 11 30.64 1038 10 16 0.00 0.00
2:53 am 02:53 Clear 6 -14.4 -2 -18.9 69 69 NW 6 9 30.63 1037 10 16 0.00 0.00
3:53 am 03:53 Clear 6 -14.4 -2 -18.9 69 69 W 5 7 30.63 1037 10 16 0.00 0.00
4:53 am 04:53 Clear 6 -14.4 -2 -18.9 69 69 W 3 6 30.62 1037 10 16 0.00 0.00
5:53 am 05:53 Clear 6 -14.4 -1 -18.3 73 73 WSW 5 7 30.60 1036 10 16 0.00 0.00
6:53 am 06:53 Clear 6 -14.4 1 -17.2 79 79 SW 6 9 30.58 1036 10 16 0.00 0.00
7:53 am 07:53 Sunny 6 -14.4 2 -16.7 83 83 SW 6 9 30.59 1036 10 16 0.00 0.00
8:53 am 08:53 Sunny 9 -12.8 0 -17.8 66 66 SW 6 9 30.58 1036 10 16 0.00 0.00
9:53 am 09:53 Sunny 12 -11.1 -1 -18.3 56 56 WSW 6 9 30.55 1035 10 16 0.00 0.00
10:53 am 10:53 Partly Cloudy 14 -10 -1 -18.3 51 51 S 10 17 30.52 1033 10 16 0.00 0.00
11:53 am 11:53 Mostly Cloudy 16 -8.9 -2 -18.9 45 45 SSW 7 11 30.48 1032 10 16 0.00 0.00
12:53 pm 12:53 Mostly Cloudy 18 -7.8 -2 -18.9 41 41 S 14 22 30.43 1031 10 16 0.00 0.00
1:53 pm 13:53 Partly Cloudy 19 -7.2 -1 -18.3 41 41 SSW 6 9 30.40 1029 10 16 0.00 0.00
2:53 pm 14:53 Mostly Cloudy 19 -7.2 -2 -18.9 39 39 S 16 26 30.34 1027 10 16 0.00 0.00
3:53 pm 15:53 Mostly Cloudy 18 -7.8 -1 -18.3 43 43 S 18 30 30.29 1026 10 16 0.00 0.00
4:53 pm 16:53 Cloudy 18 -7.8 2 -16.7 49 49 S 18 30 30.24 1024 10 16 0.00 0.00
5:53 pm 17:53 Cloudy 18 -7.8 3 -16.1 52 52 SSE 14 22 30.22 1024 10 16 0.00 0.00
6:53 pm 18:53 Cloudy 19 -7.2 3 -16.1 49 49 S 16 26 30.20 1023 10 16 0.00 0.00
7:53 pm 19:53 Cloudy 19 -7.2 2 -16.7 47 47 S 17 28 30.20 1023 10 16 0.00 0.00
8:53 pm 20:53 Cloudy 18 -7.8 3 -16.1 52 52 S 16 26 30.17 1022 10 16 0.00 0.00
9:53 pm 21:53 Cloudy 17 -8.3 3 -16.1 54 54 S 14 22 30.14 1021 10 16 0.00 0.00
10:53 pm 22:53 Cloudy 17 -8.3 4 -15.6 56 56 SSE 17 28 30.11 1020 10 16 0.00 0.00
11:53 pm 23:53 Cloudy 18 -7.8 5 -15 57 57 S 13 20 30.07 1018 10 16 0.00 0.00

Powered by AerisWeather